METAR Formatted Surface Weather Observation
Issued by NWS

Home | Current Version | Previous Version | Text Only | Print | Product List | Glossary On
Versions: 1 2 3 4 5 6 7 8 9 10 11 12 13 14 15 16 17 18 19 20 21 22 23 24 25 26 27 28 29 30 31 32 33 34 35 36 37 38 39 40 41 42 43 44 45 46 47 48 49 50
000
SAUS42 KMHX 232057
MTRNBT
METAR KNBT 232056Z AUTO 01015G24KT 8SM -RA FEW020 OVC032 20/16 A3018
RMK AO2 PK WND 03027/2003 RAB11 SLP223 6//// T02000156 58008 PNO



USA.gov is the U.S. government's official web portal to all federal, state and local government web resources and services.